Date,TemperatureHighF,TemperatureAvgF,TemperatureLowF,DewpointHighF,DewpointAvgF,DewpointLowF,HumidityHigh,HumidityAvg,HumidityLow,PressureMaxIn,PressureMinIn,WindSpeedMaxMPH,WindSpeedAvgMPH,GustSpeedMaxMPH,PrecipitationSumIn
2013-1-1,47.4,41.8,37.9,45.7,38.3,35.8,95,87,75,30.08,29.53,20,6,20,0.09
2013-1-2,50.7,44.9,39.3,49.6,42.9,36.3,97,92,88,30.37,20.51,116,6,116,0.00
2013-1-3,51.9,50.4,48.8,49.7,48.6,47.2,97,94,91,30.66,30.37,20,8,20,0.00
2013-1-4,49.7,48.3,45.9,47.1,45.4,43.8,95,90,84,30.68,30.64,17,6,17,0.00
2013-1-5,50.5,48.1,45.8,48.6,46.5,44.4,97,94,89,30.64,30.57,14,4,14,0.01
2013-1-6,49.9,49.2,45.5,46.8,46.4,44.2,95,90,89,30.57,30.43,12,5,12,0.01
2013-1-7,47.9,45.6,43.7,46.1,44.3,42.5,97,95,93,30.43,30.27,12,4,12,0.00
2013-1-8,51.4,49.3,46.9,48.2,46.9,44.4,97,91,87,30.29,30.20,14,5,14,0.06
2013-1-9,49.1,43.1,30.8,48.3,41.4,29.5,98,94,81,30.22,30.11,10,2,10,0.06
2013-1-10,38.5,35.4,30.1,37.7,34.5,28.9,98,96,94,30.11,29.96,10,2,10,0.01
2013-1-11,42.9,37.7,33.6,40.5,36.2,32.6,97,94,88,30.12,30.00,9,2,9,0.00
2013-1-12,40.2,37.6,34.3,37.0,34.0,29.4,98,87,65,30.00,29.87,20,9,20,0.11
2013-1-13,38.4,34.6,30.7,34.8,30.6,27.1,91,85,75,30.19,29.99,14,4,14,0.00
2013-1-14,37.1,33.2,30.7,36.1,31.7,28.9,97,94,90,30.14,29.68,20,5,20,0.19
2013-1-15,37.2,32.9,26.2,33.3,30.3,24.6,94,90,83,29.91,29.68,20,5,20,0.00
2013-1-16,31.9,28.2,24.4,30.2,26.8,22.8,96,94,91,30.07,29.88,6,1,6,0.00
2013-1-17,33.6,29.6,24.5,31.4,28.0,23.3,96,94,84,30.12,29.91,6,1,6,0.00
2013-1-18,33.8,30.2,28.1,29.3,27.9,26.6,97,91,81,29.91,29.46,17,8,17,0.00
2013-1-19,32.3,30.7,29.5,31.1,29.1,26.7,96,94,88,29.52,29.44,15,6,15,0.00
2013-1-20,31.7,30.0,28.8,30.3,28.2,26.0,97,93,86,29.51,29.32,14,4,14,0.02
2013-1-21,34.1,30.4,24.7,32.3,29.1,23.3,97,95,89,29.54,29.30,5,1,5,0.03
2013-1-22,35.5,29.8,20.8,34.1,28.4,19.6,97,95,86,29.72,29.54,20,5,20,0.09
2013-1-23,35.1,34.2,33.1,33.8,31.7,30.3,100,91,84,29.84,29.72,20,6,20,0.09
2013-1-24,34.7,33.4,32.2,32.8,30.3,28.6,96,88,83,30.18,29.84,10,2,10,0.01
2013-1-25,37.6,33.9,31.3,35.5,30.4,27.8,95,87,80,30.17,29.58,20,6,20,0.06
2013-1-26,46.5,41.1,35.6,43.0,38.7,34.3,100,91,79,29.87,29.56,27,7,27,0.20
2013-1-27,49.9,45.6,39.8,49.1,40.7,35.4,97,84,62,29.65,29.29,33,12,33,0.25
2013-1-28,51.2,43.8,36.8,48.1,40.6,34.1,96,88,82,29.85,29.53,33,11,33,0.13
2013-1-29,55.8,52.7,48.3,53.4,50.6,45.6,97,93,82,29.68,29.56,33,12,33,0.08
2013-1-30,54.2,48.9,44.1,52.8,43.4,38.1,96,82,62,30.07,29.52,37,14,37,0.23
2013-1-31,50.0,47.2,44.3,45.4,41.3,38.8,93,80,67,30.07,29.82,30,13,30,0.13
2013-2-1,45.7,41.5,37.1,41.8,38.8,34.5,96,90,81,29.88,29.48,20,4,20,0.24
2013-2-2,41.7,37.5,29.3,37.8,31.6,25.6,94,79,67,30.29,29.64,21,8,21,0.00
2013-2-3,48.4,40.8,28.5,47.1,37.7,25.4,96,89,81,30.30,29.94,26,7,26,0.00
2013-2-4,49.9,47.1,42.7,46.8,40.4,34.8,92,78,59,29.98,29.74,30,13,30,0.00
2013-2-5,43.2,39.4,35.5,38.5,33.0,28.0,94,78,59,29.74,29.38,29,13,29,0.12
2013-2-6,41.8,39.3,35.3,38.6,33.7,28.1,92,80,70,30.11,29.41,26,12,26,0.07
2013-2-7,40.6,36.3,31.2,35.4,31.5,26.8,94,83,73,30.16,30.03,15,6,15,0.02
2013-2-8,41.3,36.6,30.8,36.4,33.3,29.5,96,88,75,30.19,30.07,14,4,14,0.00
2013-2-9,37.2,35.9,33.8,36.6,34.1,31.2,100,93,85,30.20,29.89,9,2,9,0.09
2013-2-10,40.7,37.5,32.9,40.2,36.8,32.1,98,97,96,29.89,29.27,20,7,20,0.57
2013-2-11,34.0,33.1,32.5,33.3,32.3,31.7,98,97,97,29.81,29.30,14,4,14,0.16
2013-2-12,34.3,33.2,32.0,32.4,30.8,29.0,97,91,87,30.18,29.81,10,3,10,0.02
2013-2-13,39.4,34.1,31.8,38.4,30.5,26.2,96,87,73,30.24,30.00,20,6,20,0.05
2013-2-14,50.7,45.6,39.5,46.6,41.9,36.4,98,87,70,30.01,29.76,22,8,22,0.06
2013-2-15,49.7,40.4,31.9,40.7,35.8,30.5,100,84,60,30.24,30.01,16,2,16,0.00
2013-2-16,49.6,42.5,34.8,41.0,37.2,32.7,94,82,60,30.28,30.22,7,1,7,0.00
2013-2-17,49.9,38.7,29.3,41.5,34.1,27.8,98,85,54,30.24,30.12,17,4,17,0.01
2013-2-18,47.8,38.6,30.2,37.9,34.1,27.9,100,85,64,30.18,30.12,15,4,15,0.01
2013-2-19,49.0,35.7,26.1,40.2,31.4,24.6,96,85,60,30.17,30.08,6,1,6,0.00
2013-2-20,42.2,36.6,33.8,37.4,32.0,27.3,97,84,67,30.29,30.13,20,8,20,0.02
2013-2-21,35.5,33.6,31.8,28.3,24.2,21.7,76,68,60,30.29,30.20,20,9,20,0.00
2013-2-22,34.9,32.9,31.4,26.3,24.1,21.8,77,70,64,30.20,30.14,17,7,17,0.00
2013-2-23,36.2,32.9,29.7,30.2,26.8,23.8,90,78,68,30.26,30.14,18,5,18,0.00
2013-2-24,35.3,33.3,31.0,30.7,28.4,26.8,95,82,74,30.33,30.25,16,6,16,0.00
2013-2-25,38.6,36.7,33.5,35.7,33.4,27.8,92,88,79,30.42,30.30,20,7,20,0.01
2013-2-26,39.5,38.0,35.9,38.5,36.7,34.3,97,95,92,30.60,30.42,16,6,16,0.02
2013-2-27,43.0,37.3,34.7,36.3,34.5,32.0,96,90,74,30.61,30.52,15,6,15,0.01
2013-2-28,46.9,39.0,33.3,38.3,34.6,31.2,100,85,66,30.53,30.36,15,6,15,0.00
2013-3-1,43.5,39.3,35.4,41.1,34.8,31.0,96,84,70,30.44,30.40,20,5,20,0.02
2013-3-2,40.0,35.9,28.0,32.9,30.6,25.8,92,81,74,30.44,30.21,12,3,12,0.00
2013-3-3,44.3,35.3,25.0,37.1,31.6,23.3,96,87,72,30.33,30.13,14,4,14,0.00
2013-3-4,51.0,39.9,32.9,38.7,34.7,30.1,99,82,61,30.13,29.77,15,6,15,0.00
2013-3-5,60.0,43.3,28.5,45.6,37.0,27.0,95,80,57,29.76,29.60,12,2,12,0.01
2013-3-6,55.4,48.6,40.7,45.3,42.5,37.3,90,80,68,29.60,29.51,12,4,12,0.02
2013-3-7,49.4,46.8,44.6,47.9,45.7,43.1,98,96,91,29.53,29.38,12,4,12,0.21
2013-3-8,49.9,48.4,46.1,49.6,47.9,45.6,100,98,98,29.57,29.39,9,2,9,0.19
2013-3-9,46.1,42.6,37.9,45.6,41.5,35.2,98,96,89,29.70,29.56,12,3,12,0.06
2013-3-10,38.7,35.9,32.8,35.2,32.2,28.2,92,86,82,29.78,29.69,20,8,20,0.00
2013-3-11,33.0,31.0,27.9,29.1,23.7,18.9,89,74,58,29.81,29.75,30,15,30,0.00
2013-3-12,41.2,33.4,27.4,32.0,24.2,18.0,89,70,46,29.86,29.78,28,12,28,0.00
2013-3-13,44.2,36.5,29.0,31.2,28.9,25.6,90,75,51,30.00,29.83,20,5,20,0.00
2013-3-14,45.6,35.5,25.4,31.9,26.6,22.9,95,72,43,30.07,29.95,12,3,12,0.00
2013-3-15,47.2,42.1,36.4,43.4,38.7,28.5,95,88,74,29.95,29.56,26,9,26,0.37
2013-3-16,47.7,42.8,39.1,43.3,40.6,36.9,96,92,81,29.56,29.28,30,12,30,0.54
2013-3-17,42.6,37.9,31.1,41.6,36.6,30.0,97,95,91,29.34,29.18,15,3,15,0.42
2013-3-18,44.9,36.2,28.8,41.8,35.0,27.8,98,96,85,29.39,29.24,11,1,11,0.25
2013-3-19,47.9,39.7,33.8,41.0,36.5,31.5,97,89,67,29.54,20.51,113,2,113,0.01
2013-3-20,42.1,37.9,34.1,39.2,35.8,32.6,97,92,86,30.03,29.54,10,4,10,0.00
2013-3-21,43.4,38.7,34.9,35.6,33.9,32.3,93,83,70,30.05,29.93,20,9,20,0.14
2013-3-22,42.7,37.9,34.9,37.1,34.8,32.9,95,89,77,29.93,29.74,25,14,25,0.39
2013-3-23,37.0,34.0,33.0,35.2,32.8,32.0,100,95,93,29.90,29.76,22,10,22,0.32
2013-3-24,33.4,31.9,30.7,32.1,28.3,24.7,95,87,71,29.98,29.89,22,9,22,0.00
2013-3-25,33.5,32.8,31.7,27.6,25.9,24.1,82,75,70,30.01,29.96,20,9,20,0.00
2013-3-26,34.6,33.1,31.9,27.4,25.7,24.7,81,74,69,29.98,29.92,17,8,17,0.00
2013-3-27,39.4,34.3,30.0,28.0,26.3,24.0,86,73,60,29.92,29.88,16,6,16,0.00
2013-3-28,40.1,35.1,28.3,31.9,26.9,23.5,92,73,58,29.98,29.88,17,5,17,0.00
2013-3-29,44.4,35.2,26.3,29.7,25.4,22.7,90,69,45,29.96,29.81,17,5,17,0.00
2013-3-30,42.2,36.3,32.8,32.8,28.7,26.9,83,74,59,30.00,29.82,14,5,14,0.00
2013-3-31,43.1,35.1,25.5,30.4,26.1,23.0,92,71,50,30.02,29.93,14,5,14,0.00
2013-4-1,44.0,36.2,32.1,30.6,27.4,24.2,85,71,50,29.93,29.86,22,8,22,0.00
2013-4-2,48.4,37.7,29.1,31.9,24.8,17.8,89,63,33,30.10,29.92,22,8,22,0.00
2013-4-3,43.9,36.5,30.6,31.7,26.4,23.7,91,68,50,30.10,30.03,24,9,24,0.00
2013-4-4,37.9,35.4,32.3,33.2,28.7,23.4,92,77,58,30.03,29.94,26,10,26,0.00
2013-4-5,48.5,39.1,34.0,31.3,28.4,22.8,82,67,41,30.16,29.94,22,11,22,0.00
2013-4-6,52.9,40.2,28.8,33.9,29.5,25.7,93,68,38,30.31,30.16,17,4,17,0.00
2013-4-7,50.4,39.5,26.8,34.7,27.7,21.5,92,66,33,30.31,29.90,14,4,14,0.00
2013-4-8,51.7,43.1,38.2,34.8,31.5,27.3,80,65,44,29.90,29.57,18,8,18,0.00
2013-4-9,40.3,40.3,40.3,34.0,34.0,34.0,78,78,78,29.57,29.40,0,0,0,0.00
2013-4-10,50.2,44.3,40.3,41.9,37.4,34.0,80,77,71,29.73,29.43,15,2,15,0.00
2013-4-11,55.2,48.8,42.8,47.7,43.1,40.3,97,81,72,29.51,29.37,15,2,15,0.01
2013-4-12,52.2,50.7,47.8,48.9,46.3,42.3,95,85,80,29.77,29.30,20,2,20,0.03
2013-4-13,51.9,49.6,43.9,47.7,46.6,42.7,96,89,80,29.92,29.77,22,2,22,0.00
2013-4-14,65.3,57.2,49.6,52.9,50.0,47.7,93,78,60,29.96,29.89,29,6,29,0.00
2013-4-15,60.4,57.6,51.7,52.1,49.2,43.6,86,74,69,30.08,29.95,21,5,21,0.00
2013-4-16,61.2,57.4,52.8,49.0,46.0,42.8,84,66,52,30.10,29.91,25,6,25,0.00
2013-4-17,64.2,60.0,55.9,52.6,48.8,44.3,83,67,63,30.10,29.78,31,4,31,0.00
2013-4-18,62.6,56.7,45.7,51.1,44.7,38.5,88,65,55,30.10,29.80,46,7,46,0.04
2013-4-19,57.1,53.1,47.0,43.2,39.1,32.5,86,59,47,30.52,30.11,17,4,17,0.00
2013-4-20,59.5,53.9,45.0,39.9,34.7,27.4,76,49,32,30.57,30.39,13,3,13,0.00
2013-4-21,56.4,52.6,45.1,41.6,34.4,21.5,84,51,39,30.39,30.05,16,4,16,0.00
2013-4-22,57.1,49.7,42.6,47.3,43.5,40.2,93,80,57,30.06,29.98,20,6,20,0.00
2013-4-23,68.9,56.7,48.4,52.1,48.4,46.3,94,75,52,30.24,30.00,17,6,17,0.00
2013-4-24,66.2,56.4,46.4,55.6,50.6,43.9,94,81,68,30.28,30.21,18,4,18,0.01
2013-4-25,70.3,58.3,48.8,56.5,51.1,47.2,96,79,51,30.27,30.05,25,6,25,0.01
2013-4-26,56.0,47.5,40.4,48.3,39.4,31.0,95,75,44,30.06,29.93,22,6,22,0.17
2013-4-27,53.6,42.6,35.7,42.7,36.6,32.6,93,80,56,30.15,29.92,22,5,22,0.06
2013-4-28,53.0,43.5,30.1,40.6,34.1,28.3,95,72,46,30.14,29.92,22,6,22,0.01
2013-4-29,56.5,49.3,43.1,43.1,38.2,35.1,91,67,46,30.21,29.92,22,8,22,0.00
2013-4-30,59.4,48.3,35.4,41.0,36.9,32.2,92,67,40,30.34,30.21,18,5,18,0.00
2013-5-1,62.7,49.4,37.1,43.2,35.6,28.8,92,64,30,30.34,30.19,15,4,15,0.00
2013-5-2,65.7,51.5,35.4,36.6,30.2,16.6,88,50,17,30.25,30.17,17,4,17,0.00
2013-5-3,64.9,52.0,36.0,47.1,39.7,32.2,89,65,39,30.21,30.07,18,5,18,0.00
2013-5-4,60.9,52.8,45.6,52.3,42.7,37.3,90,70,45,30.16,30.00,27,10,27,0.04
2013-5-5,65.4,55.0,40.1,51.7,46.8,36.9,93,75,57,30.22,30.16,12,3,12,0.00
2013-5-6,71.0,58.6,46.5,51.4,47.5,44.0,93,69,44,30.19,30.06,12,2,12,0.00
2013-5-7,73.7,59.0,42.2,48.9,44.3,39.4,94,62,34,30.10,29.86,17,4,17,0.00
2013-5-8,62.2,55.2,47.4,54.4,49.5,44.2,96,81,66,29.86,29.69,20,7,20,0.05
2013-5-9,56.7,49.6,42.6,47.3,43.1,39.9,93,79,56,29.85,29.68,37,13,37,0.03
2013-5-10,61.7,53.2,46.9,49.2,46.7,43.8,90,80,56,29.95,29.70,26,12,26,0.04
2013-5-11,55.8,48.6,42.2,50.1,43.0,39.0,95,82,60,29.94,29.82,29,8,29,0.07
2013-5-12,57.6,49.0,41.5,50.4,43.6,38.6,95,83,53,30.04,29.93,20,8,20,0.03
2013-5-13,58.4,51.6,46.2,50.0,43.2,37.3,95,74,50,29.94,29.83,26,11,26,0.06
2013-5-14,51.2,46.8,43.8,47.3,42.8,39.8,96,86,66,29.84,29.20,28,9,28,0.35
2013-5-15,56.7,46.7,41.5,46.3,41.1,37.9,91,81,54,29.57,29.13,27,9,27,0.03
2013-5-16,61.4,48.5,34.7,46.1,40.0,32.8,96,75,46,29.58,29.49,15,2,15,0.00
2013-5-17,53.7,47.6,37.4,46.4,42.2,35.0,95,82,71,29.84,20.50,114,3,15,0.00
2013-5-18,60.5,52.8,45.9,47.6,45.2,42.9,91,76,58,29.83,29.73,16,3,16,0.00
2013-5-19,66.3,55.2,43.6,51.8,47.2,41.3,95,76,58,29.92,29.80,13,3,13,0.00
2013-5-20,63.2,56.6,49.7,57.8,53.1,47.3,95,88,81,29.93,29.86,16,6,16,0.02
2013-5-21,59.4,56.1,53.3,56.1,51.7,49.2,92,85,75,30.09,29.93,16,6,16,0.00
2013-5-22,58.7,52.0,45.8,49.1,45.2,36.6,94,78,56,30.13,30.05,20,6,20,0.02
2013-5-23,50.9,45.4,41.3,42.4,37.9,33.3,88,75,54,30.05,29.92,23,8,23,0.04
2013-5-24,47.4,43.5,40.8,45.4,40.1,36.7,94,88,79,30.06,29.65,26,10,26,0.15
2013-5-25,61.2,50.0,40.7,43.9,40.9,38.8,95,73,47,30.20,30.06,17,5,17,0.00
2013-5-26,66.2,54.1,40.9,45.5,41.5,37.9,90,65,42,30.17,29.98,15,5,15,0.00
2013-5-27,62.4,52.8,38.8,45.0,39.3,28.8,92,63,29,29.98,29.64,27,7,27,0.00
2013-5-28,51.5,49.3,47.7,50.4,47.1,43.3,97,92,79,29.64,29.49,12,2,12,0.65
2013-5-29,54.5,50.2,44.5,52.6,48.1,43.2,96,93,82,29.79,29.58,14,3,14,0.02
2013-5-30,58.9,54.1,51.0,53.3,51.5,49.9,97,91,80,30.03,29.77,15,5,15,0.13
2013-5-31,71.3,59.8,51.5,57.7,52.6,48.8,92,78,57,30.15,30.02,15,5,15,0.00
2013-6-1,65.7,56.4,48.6,50.4,45.8,42.0,86,69,47,30.33,30.15,20,7,20,0.00
2013-6-2,65.3,55.4,43.0,46.9,43.7,40.1,93,67,45,30.46,30.33,19,4,19,0.00
2013-6-3,68.5,56.4,42.5,48.2,44.2,39.8,94,66,44,30.51,30.42,17,4,17,0.00
2013-6-4,70.6,57.2,43.9,49.2,44.6,39.5,86,65,40,30.45,30.23,23,6,23,0.00
2013-6-5,71.3,57.8,46.8,53.4,48.1,43.4,91,72,48,30.25,30.09,15,5,15,0.00
2013-6-6,73.9,58.4,46.0,55.6,48.7,43.3,91,72,49,30.21,30.13,15,6,15,0.00
2013-6-7,69.9,58.4,48.9,55.2,48.2,43.3,83,69,54,30.25,30.18,20,5,20,0.00
2013-6-8,65.5,56.3,46.9,50.1,46.8,43.5,89,72,53,30.24,30.08,18,8,18,0.00
2013-6-9,61.3,54.5,49.9,49.0,46.3,43.9,83,74,62,30.09,29.98,17,7,17,0.00
2013-6-10,59.8,53.0,45.3,48.4,45.0,40.6,90,75,60,30.03,29.97,8,2,8,0.00
2013-6-11,63.0,55.4,44.8,59.1,51.6,41.9,92,87,77,29.99,20.50,115,6,115,1.37
2013-6-12,60.9,58.4,55.2,58.9,55.6,52.0,95,91,80,29.91,29.81,25,9,25,0.07
2013-6-13,63.8,56.7,51.7,54.8,51.1,46.3,94,82,64,30.06,29.79,32,11,32,0.01
2013-6-14,65.0,56.2,47.6,52.3,48.2,39.1,92,76,40,30.08,29.80,23,7,23,0.00
2013-6-15,60.4,55.4,49.7,54.7,49.7,44.7,93,81,60,29.90,29.70,25,10,25,0.35
2013-6-16,62.6,56.4,51.7,52.3,49.4,46.3,92,78,65,29.98,29.90,14,5,14,0.00
2013-6-17,69.2,60.6,52.7,54.8,51.2,48.1,88,72,55,29.99,29.92,16,6,16,0.01
2013-6-18,68.8,62.3,54.9,63.1,56.6,50.6,91,82,74,29.99,29.91,12,2,12,0.00
2013-6-19,77.5,67.0,58.3,63.3,59.8,56.1,95,79,55,29.99,29.92,14,2,14,0.00
2013-6-20,67.8,63.9,57.9,62.7,59.2,54.4,92,85,76,29.97,29.80,13,3,13,0.00
2013-6-21,70.8,62.1,56.3,61.2,56.7,53.3,95,83,60,29.89,29.78,16,5,16,0.00
2013-6-22,63.2,56.9,52.5,57.6,52.7,49.6,96,86,73,29.87,29.67,24,11,24,0.09
2013-6-23,61.3,57.1,52.6,53.8,51.7,49.8,93,83,71,30.05,29.67,27,12,27,0.03
2013-6-24,62.3,55.7,49.4,50.1,46.9,43.9,90,73,55,30.32,30.05,20,7,20,0.00
2013-6-25,67.2,57.8,48.1,50.7,47.8,44.3,93,71,46,30.45,30.32,10,2,10,0.00
2013-6-26,69.3,59.5,46.7,53.5,49.8,43.9,93,72,51,30.46,30.38,13,3,13,0.00
2013-6-27,66.0,57.4,50.1,53.7,49.6,46.3,95,76,55,30.41,30.20,15,5,15,0.04
2013-6-28,71.2,60.7,53.2,63.4,57.8,51.7,97,90,73,30.20,30.07,18,6,18,0.05
2013-6-29,71.7,62.6,54.3,57.5,51.6,47.1,90,69,47,30.27,30.10,18,7,18,0.00
2013-6-30,77.2,65.8,56.6,61.4,57.1,51.4,96,75,50,30.26,30.09,20,7,20,0.00
2013-7-1,67.6,60.7,54.9,53.6,51.4,48.3,87,72,53,30.09,30.00,17,6,17,0.00
2013-7-2,61.8,56.6,51.2,54.9,51.1,47.4,90,82,68,30.02,29.67,18,5,18,0.00
2013-7-3,66.6,60.7,56.7,58.6,56.1,52.6,96,85,69,30.03,29.62,17,7,17,0.05
2013-7-4,73.5,63.5,53.8,63.0,57.0,50.8,94,80,62,30.27,30.03,16,5,16,0.00
2013-7-5,79.0,63.3,51.4,60.9,54.4,49.3,95,75,44,30.44,30.27,12,2,12,0.00
2013-7-6,82.0,67.1,50.6,62.2,55.8,48.0,94,70,43,30.43,30.36,10,2,10,0.00
2013-7-7,83.5,65.1,56.2,63.2,57.5,53.7,95,78,39,30.51,30.42,12,1,12,0.00
2013-7-8,82.0,69.6,57.8,63.1,57.6,52.6,89,68,45,30.54,30.43,16,5,16,0.00
2013-7-9,80.7,67.9,53.3,57.1,49.2,41.6,88,56,29,30.46,30.27,14,4,14,0.00
2013-7-10,76.5,64.5,51.8,60.8,53.4,47.3,88,68,51,30.31,30.26,20,6,20,0.00
2013-7-11,74.3,61.4,50.7,52.3,48.6,44.9,84,65,43,30.32,30.24,15,5,15,0.00
2013-7-12,78.8,63.8,52.0,61.3,54.3,48.3,91,73,48,30.32,30.23,12,2,12,0.00
2013-7-13,88.3,73.0,56.6,66.7,60.3,54.0,93,68,40,30.25,30.21,14,3,14,0.00
2013-7-14,83.9,72.5,60.4,64.5,60.2,57.0,92,68,43,30.25,30.18,16,3,16,0.00
2013-7-15,85.9,72.0,57.7,59.8,52.5,43.6,87,55,26,30.24,30.18,12,2,12,0.00
2013-7-16,86.3,73.3,61.0,63.0,58.3,54.6,87,62,36,30.23,30.17,12,2,12,0.00
2013-7-17,87.3,72.6,59.4,68.2,60.1,54.4,86,67,39,30.28,30.20,10,2,10,0.05
2013-7-18,85.2,72.4,60.1,61.6,58.7,55.8,93,65,39,30.33,30.26,17,4,17,0.00
2013-7-19,84.2,70.8,55.1,60.0,56.1,50.8,87,62,39,30.31,30.20,18,5,18,0.00
2013-7-20,75.7,66.9,59.9,61.5,58.5,56.3,92,75,60,30.25,30.15,16,5,16,0.00
2013-7-21,82.0,69.0,61.3,62.7,58.8,53.8,85,71,48,30.18,30.03,12,4,12,0.00
2013-7-22,88.5,74.5,61.9,67.3,62.0,58.7,90,68,40,30.07,29.94,18,4,18,0.00
2013-7-23,82.9,71.1,63.1,71.6,64.1,58.3,96,79,56,29.95,29.89,12,2,12,0.28
2013-7-24,78.3,67.4,58.6,61.5,58.6,55.5,91,75,53,29.98,29.93,16,5,16,0.00
2013-7-25,76.7,66.3,60.3,66.2,60.9,55.8,96,84,54,29.95,29.88,16,4,16,0.18
2013-7-26,79.3,66.7,52.8,60.1,55.4,50.8,95,70,45,29.93,29.85,10,0,10,0.00
2013-7-27,80.5,63.2,53.7,63.8,55.4,50.4,96,78,38,29.87,29.59,10,2,10,0.17
2013-7-28,74.0,64.6,56.9,60.2,57.7,54.6,96,80,54,29.77,29.60,23,8,23,0.06
2013-7-29,73.3,64.0,59.1,63.1,58.7,55.4,95,84,60,29.98,29.77,23,7,23,0.09
2013-7-30,69.8,62.2,57.3,64.5,59.4,55.9,97,91,75,29.99,29.86,13,4,13,0.08
2013-7-31,72.4,65.6,60.6,64.9,60.9,56.9,93,85,76,30.01,29.95,17,6,17,0.00
2013-8-1,90.1,74.9,61.6,69.1,63.6,59.6,96,71,43,29.95,29.67,20,6,20,0.00
2013-8-2,77.0,69.3,65.3,64.1,58.9,55.1,85,70,51,29.83,29.73,20,4,20,0.00
2013-8-3,73.8,70.0,63.5,59.2,56.4,50.7,80,62,53,30.10,29.80,23,4,23,0.00
2013-8-4,73.8,70.0,65.3,58.6,56.4,50.6,79,62,54,30.11,30.03,22,4,22,0.00
2013-8-5,71.7,67.9,62.2,61.2,58.8,57.1,95,73,66,30.03,29.77,21,2,21,0.00
2013-8-6,71.3,66.6,60.5,61.2,55.7,49.1,95,71,49,30.05,29.93,9,1,9,0.00
2013-8-7,73.2,70.6,61.5,57.5,52.0,42.6,86,52,46,30.04,29.91,15,3,15,0.00
2013-8-8,75.5,71.3,64.1,56.9,52.7,49.6,73,52,44,30.13,30.04,12,2,12,0.00
2013-8-9,73.0,69.9,62.6,62.5,54.8,47.5,95,59,48,30.19,30.03,18,4,18,0.00
2013-8-10,71.0,67.3,58.6,53.9,51.1,47.1,78,57,47,30.22,30.15,20,3,20,0.00
2013-8-11,72.0,64.4,58.6,58.2,53.0,48.4,86,68,46,30.15,30.02,20,6,20,0.00
2013-8-12,68.8,60.6,53.9,54.3,49.6,45.6,92,69,46,30.12,30.01,18,5,18,0.00
2013-8-13,68.0,57.5,48.7,57.7,50.6,45.8,92,79,51,30.23,30.12,17,4,17,0.04
2013-8-14,70.8,59.6,48.4,60.4,54.4,47.0,96,84,58,30.24,30.16,14,3,14,0.06
2013-8-15,73.2,65.9,60.9,65.9,61.5,58.8,97,86,70,30.16,30.01,20,6,20,0.01
2013-8-16,73.5,65.3,60.8,64.7,61.3,58.4,94,87,72,30.02,29.94,14,4,14,0.06
2013-8-17,66.9,60.9,54.8,60.7,56.9,53.1,95,87,71,30.00,29.74,22,7,22,0.02
2013-8-18,72.6,64.5,59.3,61.5,57.0,51.6,95,78,56,29.92,29.73,20,6,20,0.00
2013-8-19,71.5,61.0,50.0,54.6,50.8,46.9,93,71,48,30.33,29.92,17,4,17,0.00
2013-8-20,75.1,62.5,50.1,56.1,51.5,47.3,94,70,44,30.38,30.31,9,1,9,0.00
2013-8-21,78.4,65.4,50.7,59.7,53.9,48.1,94,69,43,30.32,30.16,13,2,13,0.02
2013-8-22,72.8,64.9,60.3,67.3,61.9,58.7,97,90,76,30.17,30.06,12,2,12,0.10
2013-8-23,79.0,68.4,59.1,63.7,59.9,56.5,97,77,49,30.06,29.87,17,4,17,0.01
2013-8-24,65.0,62.2,60.0,61.7,59.7,53.9,96,92,79,29.89,29.82,15,5,15,0.24
2013-8-25,76.4,63.3,54.1,63.9,57.3,49.6,96,82,56,30.06,29.86,16,5,16,0.03
2013-8-26,77.8,66.5,57.0,63.0,57.3,50.3,93,75,46,30.11,30.04,12,3,12,0.00
2013-8-27,74.3,61.0,48.8,57.7,51.4,46.6,97,74,43,30.15,30.06,12,2,12,0.00
2013-8-28,75.5,61.2,47.1,57.4,52.0,44.6,96,74,44,30.24,30.14,10,1,10,0.00
2013-8-29,74.9,63.8,54.4,58.9,55.3,51.5,94,75,50,30.21,30.14,17,4,17,0.00
2013-8-30,75.3,69.2,62.0,60.3,59.0,57.2,89,71,56,30.16,30.06,24,8,24,0.00
2013-8-31,69.7,61.1,50.0,59.4,48.9,42.6,94,67,40,30.43,30.14,18,5,18,0.00
2013-9-1,69.9,57.0,45.0,52.2,47.5,41.6,92,72,47,30.47,30.36,15,4,15,0.00
2013-9-2,76.8,63.3,50.7,59.9,55.0,47.6,93,76,55,30.38,30.30,17,4,17,0.00
2013-9-3,77.1,64.1,53.3,62.8,57.7,51.0,95,81,57,30.38,30.28,9,1,9,0.00
2013-9-4,82.3,65.9,51.2,63.1,55.0,49.1,95,72,35,30.28,30.00,13,2,13,0.00
2013-9-5,84.0,66.1,51.9,63.6,55.2,49.6,97,72,40,30.00,29.77,13,2,13,0.00
2013-9-6,63.2,57.7,52.9,55.5,52.6,48.1,93,83,65,29.85,29.72,14,3,14,0.02
2013-9-7,64.3,54.4,47.1,53.4,48.9,44.9,94,83,58,30.06,29.84,18,4,18,0.06
2013-9-8,60.0,51.9,43.4,52.6,47.4,42.1,96,85,61,30.08,30.05,17,3,17,0.06
2013-9-9,56.3,51.0,44.2,55.2,49.8,42.6,99,96,94,30.08,29.99,7,2,7,0.13
2013-9-10,60.5,54.3,46.9,51.6,48.8,45.8,97,83,67,30.19,30.08,21,6,21,0.00
2013-9-11,62.2,56.3,52.1,54.1,50.9,47.5,96,82,66,30.21,30.13,20,6,20,0.09
2013-9-12,67.3,58.4,53.5,58.4,55.5,52.4,97,91,71,30.14,30.08,7,1,7,0.03
2013-9-13,65.4,61.4,54.7,63.5,60.2,53.8,98,96,92,30.08,29.89,16,2,16,0.67
2013-9-14,57.0,51.3,45.1,53.6,49.0,42.9,97,92,77,30.11,29.91,16,4,16,0.05
2013-9-15,59.6,51.4,40.8,58.5,48.4,39.6,97,90,70,30.10,29.57,23,7,23,0.05
2013-9-16,57.3,51.1,45.1,48.7,42.6,39.8,86,73,55,29.67,29.60,29,9,29,0.03
2013-9-17,58.5,51.8,45.8,57.7,48.5,41.6,97,89,76,29.67,29.36,15,5,15,0.19
2013-9-18,59.9,53.6,47.5,54.4,48.5,43.1,96,84,58,29.90,29.42,20,5,20,0.01
2013-9-19,61.9,53.2,43.9,60.4,49.7,41.1,96,88,75,29.93,29.75,21,5,21,0.02
2013-9-20,65.2,56.1,49.6,53.2,49.7,47.1,92,80,60,30.21,29.90,12,3,12,0.00
2013-9-21,65.3,57.6,47.9,61.1,54.7,45.8,96,90,83,30.33,30.20,12,3,12,0.00
2013-9-22,67.7,61.9,55.2,61.9,59.6,53.8,96,92,80,30.39,30.32,10,2,10,0.00
2013-9-23,63.2,58.8,51.1,59.3,56.8,49.3,98,93,86,30.36,30.14,9,1,9,0.00
2013-9-24,70.3,56.3,46.1,62.5,53.8,45.0,98,92,74,30.14,29.94,7,1,7,0.01
2013-9-25,69.8,61.0,53.9,62.4,58.0,52.5,99,90,75,29.95,29.84,8,1,8,0.01
2013-9-26,66.6,59.2,54.1,59.4,53.6,50.1,94,82,60,30.07,29.92,13,4,13,0.00
2013-9-27,63.8,55.8,48.5,53.2,50.5,46.8,96,83,63,30.07,29.94,15,4,15,0.00
2013-9-28,64.3,58.0,51.9,58.1,52.9,48.9,95,84,64,29.94,29.74,18,7,18,0.00
2013-9-29,67.1,59.2,56.0,56.2,53.3,51.8,88,81,67,29.76,29.71,17,6,17,0.00
2013-9-30,64.8,58.5,54.2,56.3,53.2,50.4,93,83,66,29.79,29.69,13,4,13,0.00
2013-10-1,61.9,56.8,50.9,57.3,52.7,48.7,94,86,78,29.83,29.77,14,5,14,0.00
2013-10-2,68.5,60.4,56.0,62.6,57.2,52.6,97,90,76,29.90,29.79,15,5,15,0.09
2013-10-3,65.0,60.7,55.1,63.1,59.3,53.8,98,95,90,29.88,29.70,16,6,16,0.02
2013-10-4,67.7,62.8,58.1,62.8,59.6,55.7,96,89,76,29.96,29.68,21,6,21,0.03
2013-10-5,65.5,58.7,52.7,58.0,55.3,50.7,96,89,73,30.28,29.96,9,1,9,0.00
2013-10-6,65.5,53.9,42.9,56.0,49.1,41.4,97,85,61,30.33,30.27,13,1,13,0.00
2013-10-7,65.8,56.6,47.1,58.1,53.1,45.7,98,89,73,30.33,30.27,12,2,12,0.00
2013-10-8,66.6,60.4,53.2,59.9,57.1,51.8,97,89,78,30.30,30.25,15,3,15,0.00
2013-10-9,62.6,55.1,45.3,55.7,49.9,38.8,95,83,70,30.26,30.02,25,6,25,0.00
2013-10-10,52.3,47.4,42.9,41.1,39.4,37.3,86,74,63,30.17,30.05,25,11,25,0.00
2013-10-11,56.9,51.7,46.1,52.1,47.7,39.6,94,87,69,30.16,30.01,28,12,28,0.13
2013-10-12,58.0,52.4,46.9,52.6,48.1,44.4,95,86,63,30.15,30.00,25,5,25,0.06
2013-10-13,51.9,49.6,47.2,51.1,48.3,46.0,100,95,91,30.03,29.81,17,7,17,0.25
2013-10-14,51.8,48.2,46.9,48.6,46.5,45.5,97,94,86,29.82,29.73,16,5,16,0.14
2013-10-15,55.0,48.0,41.3,50.2,45.8,39.7,97,92,83,29.99,29.79,12,3,12,0.00
2013-10-16,60.6,49.3,38.0,59.1,47.0,36.4,99,92,75,30.00,29.71,24,6,24,0.13
2013-10-17,63.4,56.3,50.6,56.2,52.5,48.4,96,87,71,30.03,29.84,21,6,21,0.01
2013-10-18,62.2,55.5,48.5,58.4,53.3,47.3,98,92,79,30.04,29.78,14,4,14,0.01
2013-10-19,63.0,57.9,54.2,60.6,55.9,52.4,98,93,86,29.78,29.64,20,5,20,0.06
2013-10-20,61.4,55.6,52.7,57.5,53.8,51.1,97,94,86,29.76,29.64,21,6,21,0.68
2013-10-21,62.7,59.0,55.3,58.8,56.8,53.9,98,92,85,29.77,29.60,22,8,22,0.02
2013-10-22,64.7,59.9,54.3,60.4,57.7,52.8,97,92,84,29.60,29.33,22,8,22,0.35
2013-10-23,60.9,55.9,45.7,56.6,51.9,43.3,97,87,67,29.88,29.26,27,8,27,0.07
2013-10-24,61.9,51.0,39.8,55.1,48.0,38.8,98,90,75,30.01,29.83,13,4,13,0.00
2013-10-25,63.0,59.1,55.3,60.7,56.1,53.3,98,90,80,29.84,29.60,22,8,22,0.08
2013-10-26,61.2,58.5,57.3,56.5,55.1,53.1,94,88,82,29.72,29.49,28,11,28,0.06
2013-10-27,60.0,55.2,50.1,55.5,51.1,47.6,97,86,68,29.50,29.22,30,11,30,0.51
2013-10-28,59.9,52.8,46.1,59.0,49.1,43.2,98,87,71,29.62,28.90,41,13,41,0.42
2013-10-29,53.7,47.3,43.2,46.7,42.7,40.3,93,84,65,30.09,29.62,23,7,23,0.01
2013-10-30,56.9,49.2,39.1,51.4,45.1,37.5,100,86,72,30.20,30.08,20,5,20,0.00
2013-10-31,54.9,53.6,52.4,53.4,51.4,49.6,96,92,85,30.09,29.95,20,5,20,0.06
2013-11-1,55.8,53.3,50.9,54.0,51.2,49.3,96,93,89,29.95,29.56,17,4,17,0.11
2013-11-2,58.1,51.6,48.2,53.7,47.6,42.3,97,87,70,29.59,29.40,31,9,31,0.02
2013-11-3,52.2,47.3,44.6,45.1,42.1,39.5,96,82,70,29.61,29.06,29,10,29,0.33
2013-11-4,49.9,44.0,38.6,45.2,40.3,35.8,97,87,71,29.53,29.02,22,7,22,0.13
2013-11-5,53.2,46.7,36.5,50.6,43.1,34.3,97,88,69,29.55,29.27,32,7,32,0.20
2013-11-6,58.7,53.5,47.9,56.9,51.4,44.1,98,92,85,29.57,29.49,30,8,30,0.07
2013-11-7,57.5,49.1,44.3,55.6,45.6,41.6,94,88,75,29.80,29.54,17,3,17,0.01
2013-11-8,50.1,43.9,40.1,50.0,42.7,38.7,100,95,90,29.81,29.61,15,3,15,0.24
2013-11-9,44.9,41.3,36.5,44.0,40.2,34.8,100,96,94,29.80,29.64,14,3,14,0.19
2013-11-10,49.4,42.3,37.8,41.9,38.7,36.0,97,87,66,30.30,29.65,17,4,17,0.01
2013-11-11,40.1,40.1,40.1,36.0,36.0,36.0,85,85,85,30.29,30.16,0,0,0,0.00
2013-11-12,54.4,45.6,40.1,51.3,41.3,36.0,98,85,81,30.55,30.18,15,1,15,0.00
2013-11-13,50.6,47.4,34.3,44.6,42.0,30.0,97,81,68,30.60,30.23,13,1,13,0.00
2013-11-14,48.3,46.2,44.7,41.7,39.7,38.1,85,78,73,30.46,30.15,27,4,27,0.00
2013-11-15,50.6,45.7,34.8,40.2,38.4,29.0,90,76,66,30.57,30.46,13,1,13,0.00
2013-11-16,48.0,46.3,31.3,43.4,40.9,23.6,97,82,73,30.56,30.41,9,1,9,0.00
2013-11-17,47.8,47.8,47.8,43.2,43.2,43.2,84,84,84,30.41,30.04,0,0,0,0.00
2013-11-18,47.8,47.8,47.8,43.2,43.2,43.2,84,84,84,30.04,29.77,0,0,0,0.00
2013-11-19,47.8,42.7,34.7,43.2,36.6,30.2,95,79,67,30.10,29.82,20,3,20,0.00
2013-11-20,42.7,40.5,39.6,39.7,34.4,32.0,94,79,74,30.08,29.42,20,1,20,0.00
2013-11-21,46.7,43.3,41.6,39.4,37.6,35.9,88,81,69,29.97,29.44,26,2,26,0.01
2013-11-22,46.0,43.7,38.2,38.3,36.6,35.0,89,76,70,30.20,29.96,17,2,17,0.00
2013-11-23,45.4,42.6,36.9,39.2,37.1,29.2,96,81,75,30.36,30.19,15,2,15,0.00
2013-11-24,45.8,42.0,38.8,43.0,38.7,35.6,92,88,79,30.61,30.35,15,4,15,0.00
2013-11-25,44.1,40.9,38.6,39.2,37.5,35.8,93,88,80,30.73,30.61,14,4,14,0.00
2013-11-26,45.3,39.0,30.0,38.5,34.9,28.5,95,85,72,30.76,30.62,12,2,12,0.00
2013-11-27,50.1,45.1,41.9,48.1,43.4,38.3,100,94,87,30.62,30.52,7,1,7,0.00
2013-11-28,48.9,46.3,44.8,46.6,44.6,43.2,96,94,90,30.61,30.56,6,1,6,0.00
2013-11-29,49.4,46.1,42.4,44.0,41.5,37.6,95,84,71,30.56,30.22,21,8,21,0.01
2013-11-30,46.8,41.0,33.3,40.0,36.6,31.1,92,84,76,30.51,30.23,20,5,20,0.00
2013-12-1,48.0,41.2,31.3,43.6,38.8,29.6,95,91,84,30.61,30.49,6,1,6,0.00
2013-12-2,48.4,44.4,39.3,44.1,41.3,37.1,95,89,76,30.61,30.49,6,1,6,0.00
2013-12-3,42.4,41.2,39.8,39.7,37.1,35.2,95,85,79,30.49,30.36,9,1,9,0.00
2013-12-4,46.2,40.6,31.8,43.9,37.0,30.3,95,87,73,30.54,30.34,13,3,13,0.00
2013-12-5,49.9,41.6,32.5,44.8,36.6,30.8,95,83,68,30.52,30.07,33,11,33,0.02
2013-12-6,46.5,41.7,36.3,42.3,36.4,30.9,94,82,73,30.42,30.29,20,6,20,0.00
2013-12-7,47.4,44.8,42.4,44.2,42.6,40.6,94,92,86,30.39,30.30,12,4,12,0.00
2013-12-8,52.6,46.1,41.5,46.6,43.1,39.3,93,89,80,30.35,30.28,25,7,25,0.00
2013-12-9,51.3,43.9,34.3,47.3,41.8,32.9,96,92,85,30.45,30.34,15,3,15,0.01
2013-12-10,46.9,38.2,31.0,46.4,37.2,30.2,98,96,94,30.50,30.44,6,1,6,0.01
2013-12-11,39.1,34.1,30.0,38.6,33.5,29.5,98,98,96,30.49,30.34,5,1,5,0.01
2013-12-12,47.4,42.0,32.8,47.1,41.6,32.3,99,99,98,30.34,30.23,10,2,10,0.02
2013-12-13,53.7,49.5,44.6,50.1,47.3,41.6,99,92,78,30.22,30.04,22,6,22,0.02
2013-12-14,51.8,45.8,36.4,48.5,42.7,34.6,95,89,81,30.33,30.07,27,9,27,0.05
2013-12-15,53.7,51.2,43.7,52.9,50.1,42.1,97,96,92,30.19,30.01,29,11,29,0.25
2013-12-16,54.8,51.4,44.0,53.1,50.1,42.8,97,95,89,30.16,29.95,32,10,32,0.31
2013-12-17,43.9,41.1,39.0,42.6,40.2,38.1,98,97,96,30.31,30.02,13,1,13,0.13
2013-12-18,49.4,45.8,39.7,48.2,44.4,38.9,100,95,89,30.02,29.29,34,11,34,0.29
2013-12-19,47.7,42.6,36.8,45.9,38.7,35.3,95,86,70,29.90,29.34,24,7,24,0.13
2013-12-20,50.6,43.7,36.6,46.5,40.0,34.7,95,87,78,30.21,29.89,33,11,33,0.00
2013-12-21,52.8,50.4,46.1,51.1,48.4,41.6,96,93,81,30.08,29.72,35,16,35,0.35
2013-12-22,49.2,45.7,39.8,44.6,40.6,35.7,89,82,71,29.95,29.74,32,10,32,0.00
2013-12-23,52.2,47.5,39.2,50.8,45.3,36.3,96,92,86,29.95,28.85,43,16,43,0.83
2013-12-24,52.2,45.0,40.4,50.6,42.4,37.3,100,90,84,29.00,28.79,44,10,44,0.59
2013-12-25,43.8,38.2,34.3,41.1,36.5,32.9,100,94,84,29.20,28.95,15,3,15,0.08
2013-12-26,44.2,38.0,34.5,42.7,37.0,33.6,98,96,89,29.52,29.19,29,4,29,0.02
2013-12-27,51.5,47.7,43.1,50.4,42.1,36.7,96,81,67,29.28,29.02,35,15,35,0.11
2013-12-28,47.1,40.5,32.5,39.3,35.9,30.9,94,84,74,29.75,29.27,16,4,16,0.00
2013-12-29,46.5,38.6,31.7,43.1,35.9,30.4,100,90,77,30.12,29.75,20,4,20,0.02
2013-12-30,49.6,46.5,40.7,47.6,43.9,39.1,95,91,81,30.02,29.68,36,13,36,0.26
2013-12-31,50.1,44.5,39.7,47.6,43.0,38.1,97,94,89,29.87,29.56,25,7,25,0.33
2014-1-1,50.4,46.9,42.1,49.3,45.5,40.4,97,95,91,29.60,29.05,38,13,38,0.59
2014-1-2,50.6,46.8,42.3,47.8,44.0,40.6,95,90,79,29.47,29.08,25,8,25,0.16